Weather in Shabelskoye

Russia / Krasnodar Krai     46°51′07″N   38°28′23″E
temp.,
°C
wind,
m/s
gust,
m/s
humid.,
%
clouds,
%
prec.,
mm/h
press.,
hPa
HPBL,
m
5 march, fri
fri500:00+4sw8178286 0.0 1017490
03:00+3sw8178543 0.0 1016528
06:00+3sw817850 0.0 1015495
09:00+5sw8158146 0.0 1015556
12:00+7sw91472100 0.0 1015654
15:00+8sw8136994 0.0 1014755
18:00+7sw7147668 0.0 1014505
21:00+6sw6148278 0.0 1015429
6 march, sat
sat600:00+5ssw51386100 0.0 1014378
03:00+5sw51190100 0.0 1014257
06:00+4sw5119490 0.0 1013263
09:00+6sw6118992 0.0 1012442
12:00+6w478093 0.0 1012414
15:00+4nnw689197 0.0 1012287
18:000n81296100 0.8 1015658
21:00+1nnw81271100 0.4 1019924
7 march, sun
sun700:00−1nnw6116350 0.0 1022864
03:00−2nw696125 0.0 1024813
06:00−3wnw47630 0.0 1026493
09:00−1w45580 0.0 1027535
12:00+1w68580 0.0 1025868
15:00+2wsw811570 0.0 10231085
18:00+1wsw713650 0.0 1021703
21:00+1wsw715690 0.0 1021530
8 march, mon
mon800:00+1wsw715730 0.0 1020512
03:00+1wsw714730 0.0 1019472
06:00+1sw7157333 0.0 1017499
09:00+3wsw9146965 0.0 1017887
12:00+4wsw9136676 0.0 10161114
15:00+5wsw9136460 0.1 10151046
18:00+4sw8146412 0.0 1014668
21:00+3sw7147143 0.0 1015506
9 march, tue
tue900:00+3sw71289100 0.1 1015480
03:00+3sw61185100 0.3 1014450
06:00+2wsw61096100 0.2 1013417
09:00+2wsw61095100 1.3 1013457
12:00+3w71081100 0.5 1012739
15:00+2wnw71192100 0.6 1013582
18:00+2wnw8127683 0.1 1014627
21:000n497552 0.1 1018439